Location: Cabeza Gorda
(40.0667°N, 4.9667°W)
Time: 19:53:59
(UTC+00:00)

Cosmos 1484 Rocket - Pass Details

Date: 15 January 2026
Orbit: 439 x 467 km, 97.6° (Epoch: 11 February)

Event Time Altitude Azimuth Distance (km) Brightness Sun altitude
Rises 06:47:07 0° 0° (N) 2,452 5.9 -10.1°
Reaches altitude 10° 06:49:18 10° 349° (N) 1,581 4.9 -9.7°
Maximum altitude 06:52:16 29° 288° (WNW) 864 3.3 -9.2°
Drops below altitude 10° 06:55:14 10° 227° (SW) 1,585 4.9 -8.7°
Sets 06:57:25 0° 216° (SW) 2,459 6.0 -8.3°
